FW8685 Weather Reports


Display with metric or nautical units.
time (UTC)temp
F
wind
direction
speed
MPH
gust
MPH
rain 1hr
in
rain 24hr
in
rain mn
in
humidity
%
barometer
mb
20260509193036 86 133 2.0 9.0 0.00 0.00 0.00 26 1007.2
20260509192522 86 53 2.0 10.0 0.00 0.00 0.00 22 1007.2
20260509192021 86 178 4.0 11.0 0.00 0.00 0.00 22 1007.3
20260509191535 86 220 6.0 11.0 0.00 0.00 0.00 21 1007.2
20260509191023 86 207 4.0 11.0 0.00 0.00 0.00 24 1007.4
20260509190520 86 257 5.0 11.0 0.00 0.00 0.00 24 1007.4
20260509190040 86 263 3.0 9.0 0.00 0.00 0.00 23 1007.4
20260509185521 86 313 4.0 9.0 0.00 0.00 0.00 24 1007.5
20260509185022 86 299 5.0 10.0 0.00 0.00 0.00 24 1007.5
20260509184538 85 296 5.0 12.0 0.00 0.00 0.00 26 1007.5
20260509184020 85 234 5.0 12.0 0.00 0.00 0.00 24 1007.6
20260509183522 85 236 4.0 9.0 0.00 0.00 0.00 23 1007.6
20260509183038 85 264 3.0 15.0 0.00 0.00 0.00 24 1007.7
20260509182521 85 261 6.0 15.0 0.00 0.00 0.00 25 1007.8
20260509182022 85 232 5.0 13.0 0.00 0.00 0.00 26 1007.9
20260509181538 85 197 8.0 16.0 0.00 0.00 0.00 25 1008.0
20260509181021 84 239 9.0 16.0 0.00 0.00 0.00 25 1008.0
20260509180522 84 230 3.0 14.0 0.00 0.00 0.00 27 1008.1
20260509180050 85 200 7.0 15.0 0.00 0.00 0.00 29 1008.1
20260509175522 85 182 8.0 15.0 0.00 0.00 0.00 28 1008.2
20260509175022 84 232 6.0 14.0 0.00 0.00 0.00 27 1008.3
20260509174540 84 224 5.0 12.0 0.00 0.00 0.00 24 1008.3
20260509174021 84 211 5.0 12.0 0.00 0.00 0.00 25 1008.3
20260509173520 84 186 7.0 13.0 0.00 0.00 0.00 27 1008.3
20260509173053 84 274 6.0 14.0 0.00 0.00 0.00 26 1008.3
20260509172525 84 258 7.0 17.0 0.00 0.00 0.00 27 1008.4
20260509172023 84 297 8.0 17.0 0.00 0.00 0.00 26 1008.5
20260509171541 83 256 9.0 16.0 0.00 0.00 0.00 28 1008.5
20260509171020 83 234 9.0 16.0 0.00 0.00 0.00 26 1008.5
20260509170520 82 254 8.0 15.0 0.00 0.00 0.00 26 1008.6
20260509170038 82 254 9.0 17.0 0.00 0.00 0.00 26 1008.7
20260509165521 82 276 10.0 17.0 0.00 0.00 0.00 27 1008.6
20260509165021 82 300 9.0 15.0 0.00 0.00 0.00 27 1008.6
20260509164537 82 256 6.0 16.0 0.00 0.00 0.00 29 1008.6
20260509164021 81 257 8.0 18.0 0.00 0.00 0.00 30 1008.7
20260509163525 82 273 10.0 18.0 0.00 0.00 0.00 28 1008.7
20260509163037 81 226 7.0 14.0 0.00 0.00 0.00 33 1008.8
20260509162521 81 247 5.0 14.0 0.00 0.00 0.00 33 1008.9
20260509162050 81 238 5.0 13.0 0.00 0.00 0.00 36 1008.9
20260509161552 80 249 7.0 13.0 0.00 0.00 0.00 35 1008.9
20260509161022 80 280 7.0 13.0 0.00 0.00 0.00 38 1008.9
20260509160523 79 219 7.0 11.0 0.00 0.00 0.00 38 1008.8
20260509160039 80 229 5.0 11.0 0.00 0.00 0.00 38 1008.8
20260509155522 80 208 7.0 11.0 0.00 0.00 0.00 39 1008.7
20260509155022 79 211 5.0 11.0 0.00 0.00 0.00 40 1008.6
20260509154545 78 279 6.0 14.0 0.00 0.00 0.00 38 1008.7
20260509154022 78 221 8.0 14.0 0.00 0.00 0.00 41 1008.7
20260509153521 77 238 9.0 14.0 0.00 0.00 0.00 38 1008.7
20260509153052 77 236 6.0 13.0 0.00 0.00 0.00 42 1008.6
20260509152521 76 257 9.0 13.0 0.00 0.00 0.00 43 1008.6
20260509152021 76 259 6.0 12.0 0.00 0.00 0.00 44 1008.6
20260509151537 75 236 6.0 14.0 0.00 0.00 0.00 44 1008.6
20260509151021 75 240 8.0 14.0 0.00 0.00 0.00 44 1008.6
20260509150521 74 193 6.0 14.0 0.00 0.00 0.00 47 1008.6
20260509150037 73 221 5.0 10.0 0.00 0.00 0.00 51 1008.5
20260509145523 72 236 3.0 10.0 0.00 0.00 0.00 52 1008.5
20260509145021 71 270 5.0 10.0 0.00 0.00 0.00 52 1008.4
20260509144544 71 240 7.0 12.0 0.00 0.00 0.00 54 1008.5
20260509144021 71 225 6.0 13.0 0.00 0.00 0.00 55 1008.6
20260509143521 70 255 6.0 13.0 0.00 0.00 0.00 57 1008.6
20260509143040 69 220 4.0 8.0 0.00 0.00 0.00 59 1008.5
20260509142520 68 247 3.0 10.0 0.00 0.00 0.00 61 1008.4
20260509142020 67 0 4.0 10.0 0.00 0.00 0.00 64 1008.3
20260509141541 66 249 3.0 7.0 0.00 0.00 0.00 68 1008.3
20260509141023 65 250 2.0 7.0 0.00 0.00 0.00 70 1008.3
20260509140521 64 249 4.0 8.0 0.00 0.00 0.00 72 1008.3
20260509140052 63 242 2.0 8.0 0.00 0.00 0.00 76 1008.3
20260509135521 62 234 4.0 8.0 0.00 0.00 0.00 81 1008.4
20260509135021 61 249 2.0 8.0 0.00 0.00 0.00 85 1008.3
20260509134538 60 199 4.0 8.0 0.00 0.00 0.00 88 1008.5
20260509134023 59 178 1.0 4.0 0.00 0.00 0.00 90 1008.5
20260509133521 58 221 1.0 5.0 0.00 0.00 0.00 91 1008.6
20260509133039 57 237 1.0 5.0 0.00 0.00 0.00 92 1008.6
20260509132522 56 241 3.0 5.0 0.00 0.00 0.00 92 1008.6
20260509132022 55 251 2.0 4.0 0.00 0.00 0.00 93 1008.6
20260509131537 55 247 1.0 3.0 0.00 0.00 0.00 93 1008.5
20260509131024 54 0 0.0 3.0 0.00 0.00 0.00 93 1008.4
20260509130521 53 236 0.0 3.0 0.00 0.00 0.00 93 1008.4
20260509130037 53 0 1.0 4.0 0.00 0.00 0.00 93 1008.3
20260509125522 53 162 0.0 4.0 0.00 0.00 0.00 94 1008.3
20260509125020 52 162 1.0 6.0 0.00 0.00 0.00 94 1008.3
20260509124544 51 0 0.0 6.0 0.00 0.00 0.00 94 1008.2
20260509124021 51 162 4.0 6.0 0.00 0.00 0.00 94 1008.2
20260509123521 50 0 0.0 0.0 0.00 0.00 0.00 93 1008.1
20260509123039 50 0 0.0 1.0 0.00 0.00 0.00 93 1008.0
20260509122521 49 0 0.0 2.0 0.00 0.00 0.00 93 1007.9
20260509122021 49 0 0.0 3.0 0.00 0.00 0.00 93 1007.9
20260509121537 48 242 1.0 3.0 0.00 0.00 0.00 93 1007.8
20260509121021 48 242 2.0 3.0 0.00 0.00 0.00 93 1008.0
20260509120521 48 194 1.0 3.0 0.00 0.00 0.00 92 1007.9
20260509120040 48 194 1.0 3.0 0.00 0.00 0.00 92 1007.8
20260509115520 48 192 2.0 3.0 0.00 0.00 0.00 92 1007.8
20260509115021 48 192 1.0 4.0 0.00 0.00 0.00 92 1007.8
20260509114538 48 192 2.0 4.0 0.00 0.00 0.00 92 1007.8
20260509114021 48 192 3.0 4.0 0.00 0.00 0.00 92 1007.6
20260509113521 48 257 2.0 3.0 0.00 0.00 0.00 92 1007.6
20260509113038 48 257 1.0 3.0 0.00 0.00 0.00 92 1007.6
20260509112523 48 257 0.0 2.0 0.00 0.00 0.00 92 1007.5
20260509112021 48 0 0.0 2.0 0.00 0.00 0.00 92 1007.5
20260509111538 47 0 0.0 2.0 0.00 0.00 0.00 92 1007.4
20260509111021 47 257 0.0 2.0 0.00 0.00 0.00 92 1007.3
20260509110522 47 0 0.0 3.0 0.00 0.00 0.00 92 1007.4
20260509110037 47 257 0.0 3.0 0.00 0.00 0.00 92 1007.4
20260509105522 47 257 1.0 4.0 0.00 0.00 0.00 91 1007.5
20260509105021 47 258 1.0 6.0 0.00 0.00 0.00 91 1007.5
20260509104541 47 269 2.0 6.0 0.00 0.00 0.00 91 1007.6
20260509104020 47 251 3.0 6.0 0.00 0.00 0.00 91 1007.6
20260509103524 47 253 3.0 6.0 0.00 0.00 0.00 91 1007.6
20260509103046 47 298 2.0 6.0 0.00 0.00 0.00 91 1007.5
20260509102524 47 292 2.0 6.0 0.00 0.00 0.00 91 1007.5
20260509102021 46 273 3.0 6.0 0.00 0.00 0.00 90 1007.4
20260509101540 46 252 3.0 6.0 0.00 0.00 0.00 90 1007.5
20260509101022 47 259 2.0 4.0 0.00 0.00 0.00 90 1007.6
20260509100521 47 283 2.0 4.0 0.00 0.00 0.00 90 1007.6
20260509100038 47 284 2.0 3.0 0.00 0.00 0.00 90 1007.6
20260509095522 47 225 1.0 3.0 0.00 0.00 0.00 90 1007.6
20260509095024 47 223 1.0 3.0 0.00 0.00 0.00 90 1007.5
20260509094543 48 224 1.0 3.0 0.00 0.00 0.00 90 1007.5
20260509094021 48 224 0.0 3.0 0.00 0.00 0.00 90 1007.5
20260509093521 48 0 1.0 3.0 0.00 0.00 0.00 90 1007.6
20260509093040 48 223 1.0 3.0 0.00 0.00 0.00 90 1007.5
20260509092521 48 223 2.0 4.0 0.00 0.00 0.00 90 1007.6
20260509092021 48 224 3.0 4.0 0.00 0.00 0.00 90 1007.6
20260509091547 49 223 2.0 4.0 0.00 0.00 0.00 90 1007.6
20260509091023 49 223 2.0 4.0 0.00 0.00 0.00 90 1007.7
20260509090521 49 223 2.0 3.0 0.00 0.00 0.00 90 1007.7
20260509090051 49 224 2.0 4.0 0.00 0.00 0.00 90 1007.6
20260509085521 48 224 1.0 4.0 0.00 0.00 0.00 90 1007.6
20260509085020 48 227 2.0 4.0 0.00 0.00 0.00 90 1007.5
20260509084541 48 236 2.0 4.0 0.00 0.00 0.00 90 1007.5
20260509084022 49 238 2.0 4.0 0.00 0.00 0.00 90 1007.6
20260509083521 49 229 2.0 4.0 0.00 0.00 0.00 90 1007.6
20260509083041 49 206 2.0 3.0 0.00 0.00 0.00 90 1007.7
20260509082521 49 205 2.0 3.0 0.00 0.00 0.00 90 1007.7
20260509082023 49 205 1.0 3.0 0.00 0.00 0.00 90 1007.7
20260509081538 48 205 1.0 4.0 0.00 0.00 0.00 90 1007.7
20260509081023 48 205 2.0 4.0 0.00 0.00 0.00 89 1007.7
20260509080524 48 204 3.0 4.0 0.00 0.00 0.00 89 1007.7
20260509080045 48 202 3.0 4.0 0.00 0.00 0.00 89 1007.6
20260509075521 49 215 3.0 4.0 0.00 0.00 0.00 89 1007.7
20260509075022 49 188 2.0 4.0 0.00 0.00 0.00 89 1007.8
20260509074553 49 188 2.0 4.0 0.00 0.00 0.00 89 1007.7
20260509074023 49 188 2.0 4.0 0.00 0.00 0.00 89 1007.6
20260509073522 49 196 3.0 4.0 0.00 0.00 0.00 89 1007.6
20260509073058 48 186 2.0 5.0 0.00 0.00 0.00 89 1007.6
20260509072521 48 204 3.0 5.0 0.00 0.00 0.00 88 1007.6
20260509072021 48 199 3.0 5.0 0.00 0.00 0.00 88 1007.7
20260509071542 48 197 3.0 5.0 0.00 0.00 0.00 87 1007.6
20260509071022 48 207 3.0 5.0 0.00 0.00 0.00 87 1007.5
20260509070522 48 217 3.0 5.0 0.00 0.00 0.00 86 1007.6
20260509070041 48 217 2.0 5.0 0.00 0.00 0.00 86 1007.7
20260509065521 48 209 3.0 6.0 0.00 0.00 0.00 86 1007.7
20260509065021 48 193 4.0 6.0 0.00 0.00 0.00 86 1007.7
20260509064539 48 180 3.0 7.0 0.00 0.00 0.00 85 1007.6
20260509064024 48 186 4.0 7.0 0.00 0.00 0.00 84 1007.6
20260509063522 48 197 4.0 5.0 0.00 0.00 0.00 84 1007.6
20260509063053 49 192 3.0 5.0 0.00 0.00 0.00 84 1007.7
20260509062526 49 171 4.0 5.0 0.00 0.00 0.00 84 1007.7
20260509062021 49 170 3.0 4.0 0.00 0.00 0.00 84 1007.6
20260509061538 49 170 3.0 4.0 0.00 0.00 0.00 84 1007.6
20260509061025 49 0 0.0 0.0 0.00 0.00 0.00 84 1007.5
20260509060524 50 0 0.0 2.0 0.00 0.00 0.00 84 1007.5
20260509060101 50 0 0.0 2.0 0.00 0.00 0.00 84 1007.4
20260509055521 50 171 1.0 4.0 0.00 0.00 0.00 83 1007.4
20260509055025 50 0 1.0 4.0 0.00 0.00 0.00 83 1007.5
20260509054539 50 171 1.0 4.0 0.00 0.00 0.00 83 1007.5
20260509054021 50 171 0.0 4.0 0.00 0.00 0.00 83 1007.6
20260509053522 51 171 1.0 4.0 0.00 0.00 0.00 83 1007.6
20260509053051 51 171 1.0 4.0 0.00 0.00 0.00 82 1007.7
20260509052522 51 171 0.0 2.0 0.00 0.00 0.00 83 1007.6
20260509052021 51 0 0.0 2.0 0.00 0.00 0.00 82 1007.7
20260509051538 51 171 1.0 2.0 0.00 0.00 0.00 82 1007.7
20260509051021 51 171 1.0 2.0 0.00 0.00 0.00 82 1007.8
20260509050521 51 170 1.0 2.0 0.00 0.00 0.00 81 1007.9
20260509050037 52 170 0.0 3.0 0.00 0.00 0.00 81 1007.8
20260509045526 52 170 1.0 4.0 0.00 0.00 0.00 81 1007.9
20260509045022 52 171 1.0 4.0 0.00 0.00 0.00 81 1007.9
20260509044537 52 171 1.0 4.0 0.00 0.00 0.00 81 1007.9
20260509044025 52 171 2.0 4.0 0.00 0.00 0.00 80 1007.8
20260509043520 52 172 1.0 4.0 0.00 0.00 0.00 80 1007.8
20260509043045 53 172 2.0 5.0 0.00 0.00 0.00 79 1007.8
20260509042522 53 172 3.0 5.0 0.00 0.00 0.00 77 1007.8
20260509042022 53 158 4.0 5.0 0.00 0.00 0.00 76 1007.9
20260509041538 53 201 1.0 3.0 0.00 0.00 0.00 73 1007.9
20260509041021 54 0 0.0 0.0 0.00 0.00 0.00 73 1007.9
20260509040521 54 0 0.0 1.0 0.00 0.00 0.00 73 1007.8
20260509040055 55 0 0.0 3.0 0.00 0.00 0.00 73 1007.8
20260509035522 55 315 1.0 3.0 0.00 0.00 0.00 74 1007.9
20260509035022 55 0 0.0 0.0 0.00 0.00 0.00 73 1007.9
20260509034537 56 0 0.0 1.0 0.00 0.00 0.00 73 1007.8
20260509034021 56 0 0.0 2.0 0.00 0.00 0.00 73 1007.8
20260509033521 56 0 0.0 3.0 0.00 0.00 0.00 72 1007.7
20260509033054 56 0 1.0 3.0 0.00 0.00 0.00 71 1007.7
20260509032523 57 315 1.0 3.0 0.00 0.00 0.00 71 1007.7
20260509032021 57 0 0.0 0.0 0.00 0.00 0.00 71 1007.7
20260509031537 57 0 0.0 0.0 0.00 0.00 0.00 70 1007.7
20260509031022 58 0 0.0 0.0 0.00 0.00 0.00 68 1007.7
20260509030522 58 0 0.0 0.0 0.00 0.00 0.00 69 1007.6
20260509030039 58 0 0.0 3.0 0.00 0.00 0.00 68 1007.6
20260509025522 59 0 0.0 4.0 0.00 0.00 0.00 68 1007.5
20260509025021 59 88 2.0 4.0 0.00 0.00 0.00 69 1007.5
20260509024540 60 0 0.0 0.0 0.00 0.00 0.00 68 1007.4
20260509024025 60 0 0.0 0.0 0.00 0.00 0.00 66 1007.5
20260509023524 61 0 0.0 1.0 0.00 0.00 0.00 64 1007.4
20260509023037 62 0 0.0 1.0 0.00 0.00 0.00 62 1007.3
20260509022521 63 9 0.0 1.0 0.00 0.00 0.00 61 1007.3
20260509022021 63 0 0.0 0.0 0.00 0.00 0.00 58 1007.4
20260509021537 64 0 0.0 0.0 0.00 0.00 0.00 57 1007.3
20260509021023 65 0 0.0 1.0 0.00 0.00 0.00 54 1007.2
20260509020524 66 0 0.0 3.0 0.00 0.00 0.00 53 1007.1
20260509020037 66 0 0.0 4.0 0.00 0.00 0.00 52 1007.1
20260509015521 67 351 2.0 5.0 0.00 0.00 0.00 52 1007.0
20260509015023 67 333 2.0 5.0 0.00 0.00 0.00 51 1006.9
20260509014532 68 331 2.0 5.0 0.00 0.00 0.00 50 1006.7
20260509014022 68 9 2.0 4.0 0.00 0.00 0.00 50 1006.6
20260509013522 69 9 2.0 4.0 0.00 0.00 0.00 49 1006.5
20260509013038 69 10 2.0 4.0 0.00 0.00 0.00 48 1006.5
20260509012522 69 26 2.0 5.0 0.00 0.00 0.00 48 1006.5
20260509012022 70 27 2.0 5.0 0.00 0.00 0.00 48 1006.4
20260509011544 70 28 3.0 9.0 0.00 0.00 0.00 48 1006.4
20260509011022 71 24 2.0 9.0 0.00 0.00 0.00 47 1006.3
20260509010521 71 352 4.0 9.0 0.00 0.00 0.00 46 1006.3
20260509010039 71 21 4.0 8.0 0.00 0.00 0.00 47 1006.4
20260509005525 71 17 5.0 12.0 0.00 0.00 0.00 47 1006.3
20260509005022 72 19 4.0 12.0 0.00 0.00 0.00 47 1006.2
20260509004548 72 5 6.0 13.0 0.00 0.00 0.00 46 1006.1
20260509004021 72 28 5.0 14.0 0.00 0.00 0.00 46 1006.0
20260509003522 72 352 8.0 14.0 0.00 0.00 0.00 46 1005.9
20260509003040 73 351 6.0 14.0 0.00 0.00 0.00 48 1005.9
20260509002525 73 20 7.0 14.0 0.00 0.00 0.00 48 1005.8
20260509002022 73 32 9.0 14.0 0.00 0.00 0.00 47 1005.8
20260509001538 74 345 5.0 14.0 0.00 0.00 0.00 47 1005.7
20260509001021 74 53 7.0 16.0 0.00 0.00 0.00 46 1005.6
20260509000521 74 344 9.0 16.0 0.00 0.00 0.00 44 1005.6
20260509000037 75 331 7.0 15.0 0.00 0.00 0.00 44 1005.6
20260508235522 75 342 7.0 13.0 0.00 0.00 0.00 43 1005.5
20260508235023 76 5 8.0 15.0 0.00 0.00 0.00 43 1005.3
20260508234537 76 319 8.0 18.0 0.00 0.00 0.00 42 1005.3
20260508234022 76 294 9.0 18.0 0.00 0.00 0.00 42 1005.2
20260508233525 76 9 10.0 18.0 0.00 0.00 0.00 44 1005.1
20260508233038 76 5 9.0 22.0 0.00 0.00 0.00 46 1005.2
20260508232522 76 12 14.0 22.0 0.00 0.00 0.00 46 1005.2
20260508232022 77 30 10.0 21.0 0.00 0.00 0.00 45 1005.0
20260508231538 77 360 8.0 16.0 0.00 0.00 0.00 46 1005.0
20260508231022 77 297 9.0 15.0 0.00 0.00 0.00 45 1005.0
20260508230521 77 23 7.0 17.0 0.00 0.00 0.00 44 1005.0
20260508230042 77 306 9.0 21.0 0.00 0.00 0.00 43 1005.0
20260508225525 77 22 10.0 21.0 0.00 0.00 0.00 43 1005.0
20260508225021 77 5 6.0 14.0 0.00 0.00 0.00 42 1005.1
20260508224549 78 316 8.0 14.0 0.00 0.00 0.00 41 1005.0
20260508224025 78 292 8.0 14.0 0.00 0.00 0.00 40 1005.1
20260508223524 78 17 8.0 13.0 0.00 0.00 0.00 41 1004.9
20260508223037 78 14 6.0 17.0 0.00 0.00 0.00 40 1004.9
20260508222523 78 292 8.0 18.0 0.00 0.00 0.00 41 1004.9
20260508222022 78 305 10.0 18.0 0.00 0.00 0.00 42 1004.9
20260508221537 78 257 7.0 13.0 0.00 0.00 0.00 43 1004.8
20260508221021 78 306 6.0 15.0 0.00 0.00 0.00 45 1004.8
20260508220521 78 303 9.0 15.0 0.00 0.00 0.00 42 1004.9
20260508220046 78 22 7.0 13.0 0.00 0.00 0.00 45 1005.0
20260508215527 78 322 4.0 15.0 0.00 0.00 0.00 45 1004.9
20260508215022 78 290 7.0 15.0 0.00 0.00 0.00 46 1004.9
20260508214543 77 311 7.0 15.0 0.00 0.00 0.00 47 1004.8
20260508214021 77 325 9.0 15.0 0.00 0.00 0.00 45 1004.8
20260508213522 77 311 9.0 13.0 0.00 0.00 0.00 45 1004.8
20260508213039 76 331 6.0 13.0 0.00 0.00 0.00 47 1004.6
20260508212522 76 313 2.0 11.0 0.00 0.00 0.00 48 1004.6
20260508212023 75 325 4.0 12.0 0.00 0.00 0.00 49 1004.6
20260508211540 74 313 5.0 12.0 0.00 0.00 0.00 50 1004.7
20260508211022 74 294 6.0 13.0 0.00 0.00 0.00 50 1004.6
20260508210522 74 360 7.0 13.0 0.00 0.00 0.00 49 1004.7
20260508210040 73 306 7.0 13.0 0.00 0.00 0.00 49 1004.7
20260508205521 73 279 6.0 13.0 0.00 0.00 0.00 50 1004.9
20260508205021 73 232 5.0 11.0 0.00 0.00 0.00 50 1005.3
20260508204539 73 256 7.0 14.0 0.00 0.00 0.00 52 1005.4
20260508204021 73 238 4.0 16.0 0.00 0.00 0.00 51 1005.1
20260508203522 73 257 10.0 16.0 0.00 0.00 0.00 51 1004.9
20260508203040 73 277 7.0 16.0 0.00 0.00 0.00 53 1005.0
20260508202523 73 282 8.0 13.0 0.00 0.00 0.00 52 1005.1
20260508202022 72 299 6.0 13.0 0.00 0.00 0.00 53 1004.9
20260508201540 72 280 7.0 12.0 0.00 0.00 0.00 53 1005.0
20260508201022 72 287 5.0 12.0 0.00 0.00 0.00 52 1005.2
20260508200522 72 274 7.0 13.0 0.00 0.00 0.00 51 1005.5
20260508200039 73 286 7.0 15.0 0.00 0.00 0.00 51 1005.4
20260508195521 73 301 8.0 15.0 0.00 0.00 0.00 50 1005.3
20260508195022 74 308 7.0 14.0 0.00 0.00 0.00 51 1005.3
20260508194546 74 336 8.0 14.0 0.00 0.00 0.00 51 1005.6
20260508194022 74 250 9.0 14.0 0.00 0.00 0.00 50 1005.5
20260508193521 74 286 5.0 14.0 0.00 0.00 0.00 50 1005.5